Theta_e
320 320 319 319 319 319 319 319 319 319 319 319 320 320 322 322 322 318 305 312 318 341 342 315 313 313 313 311 334 334 313 312 316 321 324 332 329 337 336 331 334 338 335 338 343
320 319 319 318 319 319 319 319 318 318 319 319 319 320 322 322 315 310 320 338 343 344 312 310 309 311 309 313 319 319 313 314 324 326 325 330 331 333 328 328 331 333 339 342 340
319 318 318 318 318 318 319 318 318 317 317 318 319 321 322 322 304 301 339 342 346 343 313 312 311 310 308 311 320 322 316 322 328 328 331 330 329 332 325 322 329 330 334 337 339
317 317 317 318 318 318 318 317 317 316 316 317 319 321 323 314 291 308 347 354 348 326 312 310 310 309 308 308 316 321 323 325 329 333 330 328 331 327 327 325 331 336 337 337 339
317 316 316 317 316 316 317 317 316 316 316 317 319 322 312 299 300 309 343 351 330 313 310 308 306 308 307 310 313 313 320 326 327 331 330 332 328 327 325 336 339 338 339 338 339
317 316 316 316 316 316 316 316 316 316 316 317 320 322 307 292 303 315 313 316 315 309 308 308 309 311 308 310 312 317 317 320 324 329 330 328 328 329 328 338 339 339 338 339 339
316 316 316 316 316 316 316 316 316 316 315 317 321 321 308 299 311 312 310 310 312 308 306 308 310 307 308 309 316 315 313 315 317 324 327 330 324 324 329 337 337 338 338 339 340
316 316 316 315 315 315 315 315 316 316 316 319 321 312 299 308 312 314 310 308 311 308 308 309 311 308 307 312 314 311 311 304 314 324 329 325 313 325 331 333 333 335 336 337 339
316 316 315 315 315 314 314 315 317 317 319 320 307 303 300 319 310 310 310 308 309 308 310 317 310 305 309 307 304 306 301 304 308 319 327 318 311 324 331 332 332 333 335 335 337
315 315 314 314 314 313 314 314 317 315 317 320 318 302 306 305 309 308 308 311 310 311 309 308 305 302 302 302 297 300 301 304 304 312 322 314 313 325 330 332 332 331 334 334 334
315 314 314 314 314 312 309 304 300 299 305 301 300 303 308 311 310 305 307 307 307 305 301 305 301 299 302 304 307 305 305 303 308 318 316 314 317 322 331 326 328 329 330 332 333
316 314 314 313 313 312 306 300 302 302 298 307 307 307 309 308 306 306 307 301 300 298 302 301 299 304 307 307 306 305 303 303 310 315 317 318 318 327 330 328 328 329 332 333 331
316 315 314 313 313 306 301 303 308 306 295 302 307 307 308 310 307 306 305 302 299 298 299 298 302 308 306 305 304 301 301 303 305 314 319 317 312 316 327 332 334 335 335 334 333
315 315 314 312 304 304 304 306 309 306 292 296 302 307 308 307 302 310 304 303 299 299 301 299 305 306 303 302 303 298 307 308 306 304 300 312 300 310 316 322 330 331 332 333 332
315 314 313 312 304 302 307 307 306 302 282 300 303 312 305 303 300 300 303 304 299 299 301 300 302 302 302 303 306 303 307 304 305 302 304 307 302 306 312 317 322 327 331 332 332
314 313 313 306 308 305 307 308 303 292 285 300 305 304 300 300 298 300 301 304 303 299 298 301 303 304 304 306 307 308 303 300 298 297 294 300 301 301 307 315 321 326 329 332 332
312 311 311 309 302 307 307 303 292 287 299 300 299 301 297 297 298 296 297 296 295 291 291 296 297 300 304 298 301 302 295 290 290 290 290 300 300 302 308 315 321 325 327 330 332
309 308 310 309 305 306 303 299 286 293 296 301 300 298 298 297 296 295 295 293 294 294 290 291 291 298 302 300 298 296 295 291 287 287 291 303 298 303 313 317 321 327 328 329 329
308 306 304 304 309 304 301 291 291 295 303 302 298 296 294 295 296 294 293 293 296 296 291 289 292 300 302 303 303 296 293 295 292 291 292 296 302 309 314 315 318 320 323 326 329
301 301 306 307 309 302 298 292 295 302 304 301 293 296 294 294 292 291 291 296 296 299 298 294 290 297 302 302 301 298 302 295 293 289 288 293 298 299 308 312 315 317 319 323 329
303 303 307 307 305 301 293 293 300 306 304 299 295 295 296 294 295 291 293 296 299 298 298 294 292 294 297 295 296 296 296 295 295 293 290 289 295 306 310 314 316 318 321 322 327
302 301 308 307 298 293 294 297 301 301 302 301 299 299 299 299 293 292 294 297 302 300 297 296 292 290 295 299 299 299 297 297 292 291 293 293 295 309 314 316 320 321 323 324 329
305 300 306 303 293 292 295 299 302 301 301 301 300 303 303 301 298 297 298 304 302 300 297 297 290 288 291 294 295 295 296 296 296 296 294 293 296 312 314 317 320 321 322 326 328
306 298 300 300 296 295 295 297 299 306 304 304 302 305 304 303 305 304 306 312 311 304 320 305 289 291 290 292 295 297 301 298 296 293 292 296 299 303 312 316 318 321 323 323 325
307 304 300 296 297 297 297 299 300 303 308 310 308 311 306 300 303 302 307 307 311 315 302 297 293 291 293 295 297 297 300 300 298 296 296 298 301 305 308 314 318 322 323 323 325
304 303 305 302 304 304 297 298 302 308 308 308 307 310 307 303 302 301 305 304 304 309 303 296 292 291 292 295 297 298 304 303 302 304 302 304 304 309 316 317 318 321 322 324 330
301 305 305 302 303 303 301 306 307 310 312 313 312 308 307 310 313 313 309 309 307 305 304 300 290 290 290 297 299 295 300 306 305 307 306 302 306 315 315 316 318 320 323 324 332
Wind_Speed
13 12 12 12 12 12 12 12 12 12 12 12 13 14 15 17 16 1 7 11 6 7 2 4 4 6 3 2 3 2 5 3 7 6 5 8 8 5 3 2 1 3 6 9 20
12 12 12 12 12 12 12 12 13 13 13 13 13 13 14 15 4 8 12 11 12 6 2 4 6 8 4 4 2 4 4 8 9 8 4 8 6 8 3 4 2 7 12 19 18
14 13 13 13 12 12 12 12 13 12 13 12 12 12 12 9 3 9 3 15 13 6 1 1 2 1 5 3 0 1 3 3 4 8 8 9 6 4 4 3 7 10 17 18 18
15 14 14 13 13 12 12 13 13 13 13 12 11 12 13 0 3 2 8 6 14 9 5 1 2 3 2 3 3 1 6 2 1 7 8 10 7 5 7 4 5 18 22 19 18
15 15 14 13 14 13 13 13 14 14 12 10 10 10 3 1 11 3 9 10 9 9 8 4 3 2 2 3 5 2 5 3 4 6 7 7 7 5 4 3 11 16 17 18 15
16 15 15 14 14 14 15 15 15 13 11 8 8 8 2 3 3 4 6 4 6 7 5 4 4 5 2 3 2 4 6 8 7 8 6 6 3 4 2 11 12 15 15 14 15
16 16 16 16 15 15 16 17 15 13 8 6 6 3 1 14 3 7 5 2 7 3 5 3 2 3 4 6 2 4 4 4 3 8 6 7 1 2 5 11 13 11 11 12 11
17 16 16 17 17 17 17 18 17 10 6 5 3 1 9 4 3 8 2 2 3 3 3 3 3 2 1 5 6 3 4 5 2 7 5 8 7 5 9 13 11 11 9 8 7
17 17 17 17 17 17 16 20 12 3 4 2 1 1 10 7 3 3 4 3 6 3 1 2 4 2 3 3 5 8 3 5 10 5 6 3 4 4 9 10 9 9 8 7 5
18 18 18 17 17 17 18 11 1 3 2 3 4 3 5 1 2 1 2 4 3 5 3 4 6 4 4 5 2 3 4 5 5 2 1 3 3 6 6 7 8 6 6 6 6
18 18 18 17 14 13 9 4 3 1 2 9 5 3 4 8 2 2 3 5 3 4 5 2 5 5 7 4 4 2 3 5 5 1 3 4 4 4 5 5 6 7 8 7 6
15 18 18 16 12 9 1 2 1 1 7 10 5 7 4 1 3 2 5 5 4 3 3 6 4 5 5 4 2 2 2 5 10 3 6 3 3 1 6 4 7 10 8 8 5
15 16 15 13 12 2 3 6 4 3 1 6 6 5 5 8 6 6 8 5 5 4 3 7 3 4 4 4 4 2 4 2 7 3 6 5 3 3 3 3 5 5 3 4 6
15 16 15 12 3 2 5 2 6 6 5 6 3 7 5 5 3 5 6 7 1 8 8 3 2 3 2 4 4 5 3 4 6 3 4 3 5 6 4 8 7 5 6 6 6
15 16 11 3 5 3 1 7 1 3 3 2 3 1 1 8 6 2 4 6 7 5 7 7 6 3 5 5 6 8 2 5 4 3 5 0 5 8 3 8 7 5 5 6 7
16 14 8 1 3 7 6 6 3 7 4 1 4 5 4 3 2 4 3 5 4 5 4 4 2 5 7 4 7 4 3 7 5 3 3 1 4 8 6 10 3 5 6 7 6
18 13 6 4 4 2 4 3 6 4 4 3 3 4 2 3 2 3 7 5 6 5 1 4 3 2 4 4 3 5 7 4 5 5 6 3 3 12 5 8 9 12 8 7 7
21 4 7 8 1 5 1 6 3 2 5 5 3 4 6 5 3 3 6 6 1 6 4 6 5 7 4 8 6 5 8 7 6 4 4 2 7 8 5 4 4 8 9 9 7
7 1 1 5 10 2 5 3 6 4 5 7 1 4 2 3 6 4 7 8 9 7 7 6 5 4 5 4 8 3 3 4 9 4 2 4 8 8 5 6 4 7 8 10 10
1 1 2 3 9 1 6 4 3 4 5 5 4 2 5 4 4 5 7 6 6 10 6 5 1 4 3 4 2 4 5 3 3 4 4 5 6 8 6 11 8 9 10 11 10
0 4 4 3 2 5 4 5 5 6 3 5 2 3 4 4 7 7 8 4 7 6 7 7 4 6 2 3 8 1 0 5 5 5 7 3 9 9 10 12 18 12 11 11 11
2 5 1 2 5 1 3 4 3 5 2 7 3 7 3 4 5 4 10 11 10 12 11 8 6 6 12 5 1 4 8 7 6 6 3 4 10 4 8 9 11 11 13 12 11
3 2 1 2 3 2 4 4 3 3 4 3 4 6 2 2 3 5 3 5 8 9 12 9 2 1 12 7 1 5 5 5 4 4 7 6 10 3 1 6 6 8 8 9 9
2 3 4 4 0 4 1 3 4 5 5 5 3 1 1 2 1 3 2 2 3 1 8 9 4 9 10 9 4 4 5 5 6 3 5 7 7 10 3 7 5 6 5 7 10
3 1 3 3 3 4 3 2 3 4 2 1 1 2 4 3 1 0 1 4 6 9 4 7 9 8 7 5 4 3 2 7 8 5 7 6 8 10 8 11 8 6 7 6 6
2 2 4 1 1 4 5 5 6 4 3 2 4 2 3 4 2 2 0 1 2 5 3 4 4 7 6 6 7 3 1 6 5 4 6 2 8 2 1 7 8 10 9 8 8
3 2 2 2 1 3 5 5 4 2 4 3 1 2 3 3 3 2 2 3 3 5 2 2 6 5 9 5 7 2 8 6 4 4 5 6 5 4 0 6 9 12 10 11 9
Wind_Direction
351 349 346 344 342 342 340 337 335 329 322 318 317 321 326 331 319 172 248 222 194 205 346 317 350 337 70 70 121 131 70 148 191 169 237 155 192 168 187 159 71 99 140 147 141
353 348 345 342 341 338 336 335 333 329 323 318 317 320 327 335 326 268 239 222 211 142 52 41 353 349 10 11 47 98 123 211 183 191 174 169 197 172 169 166 149 76 94 129 141
349 347 344 342 339 337 333 331 331 325 321 314 314 316 322 329 323 248 11 223 205 177 146 351 302 6 20 343 326 145 208 166 236 171 136 169 192 192 142 233 208 163 145 147 148
346 344 342 340 337 333 328 326 326 323 315 308 309 315 319 319 223 68 357 260 175 152 142 149 2 27 49 358 282 238 250 167 307 166 140 169 146 196 191 230 179 159 157 152 162
344 341 339 336 333 329 325 322 320 320 311 301 304 316 325 270 252 329 42 90 120 134 162 151 133 163 5 320 299 189 291 218 196 151 150 145 170 198 209 43 125 139 156 164 170
341 338 337 334 330 327 321 318 314 313 308 292 300 316 265 266 255 72 35 119 123 114 156 159 175 190 217 243 200 247 281 262 176 152 150 137 140 180 141 131 134 150 166 172 176
340 337 334 332 329 325 322 317 309 305 295 276 297 286 272 238 358 339 345 98 161 134 135 212 177 60 340 334 342 308 330 320 190 150 172 123 242 206 147 143 152 164 174 177 184
338 336 334 332 329 326 320 315 308 292 261 264 271 259 247 249 308 304 159 111 120 115 129 173 149 96 203 308 354 2 50 16 20 150 207 135 251 173 165 146 167 172 180 179 186
336 334 332 333 330 328 322 316 310 236 221 222 3 83 270 323 292 276 162 137 120 113 214 146 107 98 11 38 18 8 58 10 328 248 157 170 238 178 154 160 162 180 184 187 160
334 333 332 332 330 330 323 316 59 95 207 192 259 345 274 179 274 150 176 143 114 110 93 99 57 65 32 61 143 21 357 313 258 296 81 135 347 74 135 159 184 173 178 188 195
332 332 331 330 329 334 350 9 31 324 240 192 195 251 309 296 280 211 170 118 91 74 127 92 93 201 199 147 125 114 219 281 289 47 125 81 92 133 153 160 179 196 201 200 204
324 330 329 328 322 322 358 189 213 154 305 222 234 279 267 331 327 285 136 125 115 163 108 48 212 204 147 135 111 190 309 300 300 306 98 77 34 315 197 218 201 207 205 191 175
325 324 323 322 319 333 219 226 2 353 123 292 186 198 216 147 207 241 130 132 129 136 169 140 217 120 86 32 352 251 211 274 234 7 34 113 355 324 272 267 226 224 180 198 199
320 318 317 324 326 318 249 317 303 191 56 267 249 274 141 164 224 204 169 130 106 169 146 171 229 169 88 254 152 305 174 221 274 136 203 88 259 266 244 263 219 190 194 214 202
316 313 313 324 303 239 13 333 57 67 27 171 194 93 266 153 148 222 223 58 153 165 120 219 138 170 224 229 175 239 297 289 303 132 123 200 93 270 349 270 243 219 215 219 212
310 307 304 263 230 248 317 322 70 45 259 78 125 148 138 9 73 115 119 67 135 119 52 188 313 163 200 223 176 255 17 34 56 72 41 258 128 280 204 228 142 195 199 209 205
310 281 228 187 226 322 306 75 51 140 317 154 155 145 127 139 104 109 138 141 149 107 37 5 261 256 172 314 9 91 62 341 353 12 222 316 71 239 246 229 209 195 188 199 188
326 299 207 221 322 351 91 59 154 262 265 305 83 106 159 145 215 109 113 165 125 98 118 152 318 166 184 183 200 179 152 162 201 199 248 215 235 256 246 257 197 173 179 169 190
334 78 209 251 215 334 83 80 208 219 305 335 348 114 158 168 144 133 172 186 195 165 144 127 258 273 185 162 146 179 185 181 105 5 58 249 294 298 268 249 236 206 171 193 185
249 202 303 66 149 126 80 223 245 224 318 4 74 15 168 191 123 142 172 198 196 180 145 198 163 223 243 129 56 170 155 81 17 141 235 287 280 243 228 226 219 222 215 204 190
166 70 333 93 141 49 144 232 270 255 353 14 354 326 215 204 178 168 198 275 203 168 133 136 103 289 3 173 181 86 31 53 121 131 167 207 262 220 226 197 209 208 217 208 188
343 63 314 130 57 8 153 210 281 279 275 257 201 210 226 178 171 205 200 208 166 147 159 193 149 209 226 261 200 179 209 159 134 241 172 161 273 260 244 198 179 193 197 197 197
78 126 345 34 122 300 283 283 258 284 251 236 248 206 156 191 117 182 192 289 147 144 165 180 223 301 329 348 81 206 190 136 100 78 191 136 265 340 239 165 175 174 172 169 182
84 80 338 49 101 140 199 271 270 245 255 218 267 4 175 175 337 173 270 274 13 145 159 111 137 161 197 208 174 184 179 152 136 133 168 215 275 292 237 197 190 165 156 166 169
24 210 186 208 271 182 147 265 276 288 248 201 190 250 187 176 189 241 335 316 41 0 107 131 198 178 226 212 207 267 207 175 191 191 168 250 199 268 232 199 178 166 146 152 182
59 44 356 259 335 140 176 226 220 255 214 209 164 161 136 113 134 191 211 310 145 344 76 345 212 171 269 177 182 233 252 220 230 148 273 230 276 206 334 136 165 168 167 187 192
332 322 111 253 131 120 209 235 240 31 228 250 150 107 92 142 209 185 134 73 145 128 123 128 136 109 246 141 123 334 220 208 234 184 166 190 222 300 193 256 199 171 179 199 199